Time,TemperatureF,DewpointF,PressureIn,WindDirection,WindDirectionDegrees,WindSpeedMPH,WindSpeedGustMPH,Humidity,HourlyPrecipIn,Conditions,Clouds,dailyrainin,SoftwareType,DateUTC
2013-08-06 00:02:00,72.0,71.0,-100.00,South,180,2.0,2.0,95,0.00,,,-99.99,,2013-08-06 05:02:00,
2013-08-06 00:11:00,72.0,71.0,-100.00,South,175,1.0,2.0,95,0.00,,,-99.99,,2013-08-06 05:11:00,
2013-08-06 00:22:00,72.0,71.0,-100.00,South,180,2.0,2.0,95,0.00,,,-99.99,,2013-08-06 05:22:00,
2013-08-06 00:32:00,72.0,71.0,-100.00,SSW,200,3.0,5.0,95,0.00,,,-99.99,,2013-08-06 05:32:00,
2013-08-06 00:43:00,73.0,71.0,-100.00,South,180,1.0,5.0,95,0.00,,,-99.99,,2013-08-06 05:43:00,
2013-08-06 01:02:00,72.0,71.0,-100.00,SSE,160,1.0,1.0,95,0.00,,,-99.99,,2013-08-06 06:02:00,
2013-08-06 01:11:00,72.0,71.0,-100.00,South,170,0.0,3.0,95,0.00,,,-99.99,,2013-08-06 06:11:00,
2013-08-06 01:22:00,72.0,71.0,-100.00,ESE,120,1.0,2.0,95,0.00,,,-99.99,,2013-08-06 06:22:00,
2013-08-06 01:32:00,72.0,71.0,-100.00,SE,130,3.0,4.0,95,0.00,,,-99.99,,2013-08-06 06:32:00,
2013-08-06 01:43:00,72.0,71.0,-100.00,ESE,120,1.0,2.0,95,0.00,,,-99.99,,2013-08-06 06:43:00,
2013-08-06 02:01:00,71.0,70.0,-100.00,SE,135,1.0,3.0,95,0.00,,,-99.99,,2013-08-06 07:01:00,
2013-08-06 02:12:00,71.0,70.0,-100.00,SE,135,0.0,2.0,95,0.00,,,-99.99,,2013-08-06 07:12:00,
2013-08-06 02:22:00,71.0,70.0,-100.00,ENE,60,1.0,2.0,95,0.00,,,-99.99,,2013-08-06 07:22:00,
2013-08-06 02:32:00,71.0,70.0,-100.00,SE,125,1.0,2.0,95,0.00,,,-99.99,,2013-08-06 07:32:00,
2013-08-06 02:43:00,71.0,70.0,-100.00,SE,140,1.0,4.0,95,0.00,,,-99.99,,2013-08-06 07:43:00,
2013-08-06 02:53:00,71.0,70.0,-100.00,SE,145,0.0,2.0,95,0.00,,,-99.99,,2013-08-06 07:53:00,
2013-08-06 03:02:00,71.0,70.0,-100.00,SW,215,0.0,3.0,95,0.00,,,-99.99,,2013-08-06 08:02:00,
2013-08-06 03:11:00,71.0,70.0,-100.00,East,80,2.0,3.0,95,0.00,,,-99.99,,2013-08-06 08:11:00,
2013-08-06 03:22:00,71.0,69.0,-100.00,South,175,1.0,2.0,95,0.00,,,-99.99,,2013-08-06 08:22:00,
2013-08-06 03:33:00,71.0,70.0,-100.00,WNW,285,0.0,2.0,95,0.00,,,-99.99,,2013-08-06 08:33:00,
2013-08-06 03:43:00,71.0,69.0,-100.00,NE,40,1.0,2.0,95,0.00,,,-99.99,,2013-08-06 08:43:00,
2013-08-06 04:01:00,71.0,69.0,-100.00,South,190,0.0,1.0,95,0.00,,,-99.99,,2013-08-06 09:01:00,
2013-08-06 04:22:00,71.0,69.0,-100.00,South,180,1.0,2.0,95,0.00,,,-99.99,,2013-08-06 09:22:00,
2013-08-06 04:32:00,70.0,69.0,-100.00,South,170,0.0,3.0,95,0.00,,,-99.99,,2013-08-06 09:32:00,
2013-08-06 04:43:00,70.0,69.0,-100.00,SE,130,1.0,1.0,95,0.00,,,-99.99,,2013-08-06 09:43:00,
2013-08-06 04:52:00,70.0,69.0,-100.00,East,80,2.0,2.0,95,0.00,,,-99.99,,2013-08-06 09:52:00,
2013-08-06 05:01:00,70.0,69.0,-100.00,NE,55,0.0,2.0,95,0.00,,,-99.99,,2013-08-06 10:01:00,
2013-08-06 05:12:00,70.0,68.0,-100.00,ENE,70,1.0,2.0,95,0.00,,,-99.99,,2013-08-06 10:12:00,
2013-08-06 05:22:00,69.0,68.0,-100.00,ESE,110,1.0,2.0,95,0.00,,,-99.99,,2013-08-06 10:22:00,
2013-08-06 05:32:00,69.0,67.0,-100.00,East,90,2.0,3.0,95,0.00,,,-99.99,,2013-08-06 10:32:00,
2013-08-06 05:43:00,69.0,67.0,-100.00,NNE,15,0.0,3.0,95,0.00,,,-99.99,,2013-08-06 10:43:00,
2013-08-06 06:02:00,69.0,68.0,-100.00,NNE,30,1.0,5.0,95,0.00,,,-99.99,,2013-08-06 11:02:00,
2013-08-06 06:11:00,69.0,68.0,-100.00,NNW,340,0.0,2.0,95,0.00,,,-99.99,,2013-08-06 11:11:00,
2013-08-06 06:22:00,69.0,67.0,-100.00,NE,45,0.0,1.0,95,0.00,,,-99.99,,2013-08-06 11:22:00,
2013-08-06 06:32:00,69.0,67.0,-100.00,South,180,2.0,2.0,95,0.00,,,-99.99,,2013-08-06 11:32:00,
2013-08-06 06:43:00,69.0,67.0,-100.00,South,180,2.0,3.0,95,0.00,,,-99.99,,2013-08-06 11:43:00,
2013-08-06 07:02:00,69.0,68.0,-100.00,SE,140,1.0,1.0,95,0.00,,,-99.99,,2013-08-06 12:02:00,
2013-08-06 07:11:00,69.0,68.0,-100.00,SSE,150,1.0,2.0,95,0.00,,,-99.99,,2013-08-06 12:11:00,
2013-08-06 07:32:00,69.0,68.0,-100.00,SE,135,0.0,2.0,95,0.00,,,-99.99,,2013-08-06 12:32:00,
2013-08-06 07:43:00,70.0,68.0,-100.00,ESE,120,1.0,2.0,95,0.00,,,-99.99,,2013-08-06 12:43:00,
2013-08-06 08:02:00,70.0,69.0,-100.00,ESE,105,2.0,3.0,95,0.00,,,-99.99,,2013-08-06 13:02:00,
2013-08-06 08:11:00,71.0,69.0,-100.00,South,180,1.0,3.0,95,0.00,,,-99.99,,2013-08-06 13:11:00,
2013-08-06 08:32:00,71.0,69.0,-100.00,ESE,120,2.0,3.0,95,0.00,,,-99.99,,2013-08-06 13:32:00,
2013-08-06 08:42:00,72.0,70.0,-100.00,SE,145,2.0,5.0,95,0.00,,,-99.99,,2013-08-06 13:42:00,
2013-08-06 08:53:00,72.0,70.0,-100.00,SE,145,2.0,5.0,95,0.00,,,-99.99,,2013-08-06 13:53:00,
2013-08-06 09:11:00,74.0,72.0,-100.00,SSW,210,3.0,8.0,95,0.00,,,-99.99,,2013-08-06 14:11:00,
2013-08-06 09:22:00,75.0,74.0,-100.00,SSW,205,5.0,7.0,95,0.00,,,-99.99,,2013-08-06 14:22:00,
2013-08-06 09:32:00,77.0,75.0,-100.00,SSW,210,4.0,6.0,95,0.00,,,-99.99,,2013-08-06 14:32:00,
2013-08-06 09:42:00,78.0,76.0,-100.00,SW,220,6.0,9.0,95,0.00,,,-99.99,,2013-08-06 14:42:00,
2013-08-06 10:02:00,79.0,77.0,-100.00,SW,220,3.0,8.0,95,0.00,,,-99.99,,2013-08-06 15:02:00,
2013-08-06 10:11:00,78.0,77.0,-100.00,West,260,3.0,7.0,95,0.00,,,-99.99,,2013-08-06 15:11:00,
2013-08-06 10:22:00,79.0,77.0,-100.00,WSW,245,4.0,7.0,95,0.00,,,-99.99,,2013-08-06 15:22:00,
2013-08-06 10:33:00,79.0,78.0,-100.00,SW,230,4.0,8.0,95,0.00,,,-99.99,,2013-08-06 15:33:00,
2013-08-06 10:44:00,80.0,78.0,-100.00,WNW,290,3.0,9.0,95,0.00,,,-99.99,,2013-08-06 15:44:00,
2013-08-06 10:52:00,79.0,77.0,-100.00,WNW,300,3.0,6.0,95,0.00,,,-99.99,,2013-08-06 15:52:00,
2013-08-06 11:02:00,80.0,78.0,-100.00,SW,220,4.0,8.0,95,0.00,,,-99.99,,2013-08-06 16:02:00,
2013-08-06 11:11:00,80.0,79.0,-100.00,SSW,200,3.0,8.0,95,0.00,,,-99.99,,2013-08-06 16:11:00,
2013-08-06 11:22:00,81.0,80.0,-100.00,West,280,4.0,7.0,95,0.00,,,-99.99,,2013-08-06 16:22:00,
2013-08-06 11:32:00,81.0,80.0,-100.00,WNW,295,4.0,7.0,95,0.00,,,-99.99,,2013-08-06 16:32:00,
2013-08-06 11:43:00,81.0,79.0,-100.00,WNW,290,7.0,10.0,95,0.00,,,-99.99,,2013-08-06 16:43:00,
2013-08-06 14:42:00,89.0,80.0,-100.00,SSW,200,2.0,6.0,74,0.00,,,-99.99,,2013-08-06 19:42:00,
2013-08-06 15:01:00,89.0,80.0,-100.00,SSW,195,5.0,7.0,75,0.00,,,-99.99,,2013-08-06 20:01:00,
2013-08-06 15:11:00,89.0,80.0,-100.00,South,180,2.0,9.0,73,0.00,,,-99.99,,2013-08-06 20:11:00,
2013-08-06 15:22:00,89.0,78.0,-100.00,WSW,240,6.0,12.0,71,0.00,,,-99.99,,2013-08-06 20:22:00,
2013-08-06 15:32:00,90.0,77.0,-100.00,South,180,2.0,8.0,66,0.00,,,-99.99,,2013-08-06 20:32:00,
2013-08-06 15:44:00,90.0,78.0,-100.00,SW,215,4.0,10.0,65,0.00,,,-99.99,,2013-08-06 20:44:00,
2013-08-06 15:52:00,91.0,78.0,-100.00,WSW,240,4.0,11.0,66,0.00,,,-99.99,,2013-08-06 20:52:00,
2013-08-06 16:01:00,90.0,79.0,-100.00,WSW,240,4.0,9.0,68,0.00,,,-99.99,,2013-08-06 21:01:00,
2013-08-06 20:01:00,83.0,72.0,-100.00,South,185,8.0,14.0,70,0.00,,,-99.99,,2013-08-07 01:01:00,
2013-08-06 20:11:00,81.0,71.0,-100.00,South,190,8.0,14.0,72,0.00,,,-99.99,,2013-08-07 01:11:00,
2013-08-06 20:22:00,80.0,71.0,-100.00,SSE,165,7.0,17.0,75,0.00,,,-99.99,,2013-08-07 01:22:00,
2013-08-06 20:32:00,76.0,74.0,-100.00,SSW,205,13.0,19.0,92,0.40,,,-99.99,,2013-08-07 01:32:00,
2013-08-06 21:02:00,72.0,71.0,-100.00,SSW,210,10.0,18.0,95,0.38,,,-99.99,,2013-08-07 02:02:00,
2013-08-06 21:11:00,72.0,70.0,-100.00,ESE,105,3.0,9.0,95,1.73,,,-99.99,,2013-08-07 02:11:00,
2013-08-06 21:22:00,71.0,70.0,-100.00,North,10,17.0,28.0,95,12.20,,,-99.99,,2013-08-07 02:22:00,
2013-08-06 21:33:00,69.0,67.0,-100.00,WSW,245,2.0,35.0,95,5.12,,,-99.99,,2013-08-07 02:33:00,
2013-08-06 21:43:00,69.0,68.0,-100.00,SE,135,8.0,13.0,95,3.54,,,-99.99,,2013-08-07 02:43:00,
2013-08-06 22:01:00,70.0,68.0,-100.00,WSW,255,5.0,11.0,95,0.00,,,-99.99,,2013-08-07 03:01:00,
2013-08-06 22:11:00,70.0,69.0,-100.00,WSW,240,3.0,7.0,95,0.51,,,-99.99,,2013-08-07 03:11:00,
2013-08-06 22:23:00,70.0,68.0,-100.00,SW,220,4.0,10.0,95,0.00,,,-99.99,,2013-08-07 03:23:00,
2013-08-06 22:43:00,69.0,68.0,-100.00,SE,140,2.0,6.0,95,0.00,,,-99.99,,2013-08-07 03:43:00,
2013-08-06 23:01:00,69.0,68.0,-100.00,North,10,1.0,2.0,95,0.00,,,-99.99,,2013-08-07 04:01:00,
2013-08-06 23:11:00,69.0,68.0,-100.00,North,5,2.0,4.0,95,0.00,,,-99.99,,2013-08-07 04:11:00,
2013-08-06 23:21:00,69.0,68.0,-100.00,NNE,25,1.0,4.0,95,0.00,,,-99.99,,2013-08-07 04:21:00,
2013-08-06 23:33:00,69.0,68.0,-100.00,South,190,7.0,8.0,95,0.00,,,-99.99,,2013-08-07 04:33:00,
2013-08-06 23:43:00,70.0,68.0,-100.00,NNE,15,7.0,12.0,95,0.00,,,-99.99,,2013-08-07 04:43:00,